This demonstration page uses our WeatherBlox Daily Observations layout. Learn more.

Left ArrowRight Arrow

38.88101, -77.10428

Hourly Observations for September 12, 2022

Temp ( °F °C ) Dew Point ( °F °C ) Humidity (%) Winds ( mph kmh ) Pressure ( in mb ) Visibility ( mi km ) Precip ( " mm )
12:52 am 00:52 Cloudy 76 24.4 73 22.8 91 91 SW 5 7 29.93 1014 10 16 0.00 0.00
1:21 am 01:21 Cloudy 76 24.4 73 22.8 91 91 SSW 5 7 29.92 1013 10 16 0.00 0.00
1:52 am 01:52 Cloudy 75 23.9 73 22.8 94 94 SSW 3 6 29.91 1013 10 16 0.00 0.00
2:52 am 02:52 Cloudy 75 23.9 73 22.8 94 94 WSW 6 9 29.89 1012 10 16 0.00 0.00
3:52 am 03:52 Cloudy 75 23.9 72 22.2 90 90 WSW 3 6 29.88 1012 10 16 0.00 0.00
4:06 am 04:06 Cloudy 75 23.9 72 22.2 90 90 SW 6 9 29.88 1012 10 16 0.00 0.00
4:52 am 04:52 Cloudy 75 23.9 72 22.2 90 90 S 5 7 29.87 1011 10 16 0.00 0.00
5:52 am 05:52 Cloudy 74 23.3 72 22.2 94 94 SSW 5 7 29.86 1011 10 16 0.00 0.00
6:52 am 06:52 Cloudy 74 23.3 72 22.2 94 94 Calm 29.86 1011 10 16 0.00 0.00
7:52 am 07:52 Cloudy 75 23.9 72 22.2 90 90 SW 6 9 29.88 1012 10 16 0.00 0.00
8:52 am 08:52 Cloudy with Mist and Fog 75 23.9 72 22.2 90 90 SSW 6 9 29.87 1011 5 8 0.00 0.00
8:59 am 08:59 Cloudy with Mist and Fog 75 23.9 72 22.2 90 90 SSW 5 7 29.87 1011 5 8 0.00 0.00
9:07 am 09:07 Cloudy with Mist and Fog 75 23.9 72 22.2 90 90 SSW 3 6 29.87 1011 5 8 0.00 0.00
9:52 am 09:52 Cloudy 77 25 72 22.2 84 84 SSW 5 7 29.86 1011 10 16 0.00 0.00
10:44 am 10:44 Cloudy 77 25 72 22.2 84 84 SW 3 6 29.88 1012 10 16 0.00 0.00
10:52 am 10:52 Cloudy 77 25 72 22.2 84 84 SSW 3 6 29.88 1012 10 16 0.00 0.00
11:52 am 11:52 Cloudy 79 26.1 72 22.2 79 79 SSE 3 6 29.87 1011 10 16 0.00 0.00
12:52 pm 12:52 Mostly Cloudy 80 26.7 72 22.2 76 76 SSE 5 7 29.85 1011 10 16 0.00 0.00
1:48 pm 13:48 Mostly Cloudy 82 28 73 23 74 74 S 7 11 29.83 1010 10 16 0.00 0.00
1:52 pm 13:52 Mostly Cloudy 82 27.8 73 22.8 74 74 S 7 11 29.82 1010 10 16 0.00 0.00
2:52 pm 14:52 Mostly Cloudy 84 28.9 72 22.2 67 67 S 5 7 29.80 1009 10 16 0.00 0.00
3:52 pm 15:52 Mostly Cloudy 82 27.8 72 22.2 72 72 S 6 9 29.77 1008 10 16 0.00 0.00
4:52 pm 16:52 Mostly Cloudy with Light Rain 81 27.2 73 22.8 77 77 S 8 13 29.76 1008 10 16 0.01 0.13
5:52 pm 17:52 Mostly Cloudy 80 26.7 72 22.2 76 76 WNW 7 11 29.77 1008 10 16 0.01 0.13
6:09 pm 18:09 Mostly Cloudy with Heavy Rain 78 25.6 74 23.3 87 87 WNW 13 20 29.76 1008 3 4 0.02 0.51
6:23 pm 18:23 Cloudy with Nearby Thunderstorms 77 25 74 23.3 90 90 W 10 17 29.76 1008 3 4 0.07 1.78
6:38 pm 18:38 Cloudy with Light Rain 76 24.4 73 22.8 91 91 W 9 15 29.77 1008 6 10 0.10 2.54
6:52 pm 18:52 Cloudy with Light Rain 75 23.9 71 21.7 88 88 W 6 9 29.77 1008 10 16 0.10 2.54
7:52 pm 19:52 Mostly Cloudy 75 23.9 73 22.8 94 94 NNE 8 13 29.77 1008 10 16 0.01 0.25
7:58 pm 19:58 Mostly Cloudy 75 23.9 72 22.2 90 90 NE 5 7 29.77 1008 10 16 0.00 0.00
8:03 pm 20:03 Mostly Cloudy 74 23.3 72 22.2 94 94 NE 3 6 29.77 1008 10 16 0.00 0.00
8:52 pm 20:52 Cloudy 74 23.3 71 21.7 91 91 NNE 3 6 29.78 1009 10 16 0.00 0.00
9:52 pm 21:52 Cloudy 75 23.9 72 22.2 90 90 W 6 9 29.78 1008 10 16 0.00 0.00
10:36 pm 22:36 Mostly Cloudy 74 23.3 71 21.7 91 91 NNW 10 17 29.80 1009 10 16 0.00 0.00
10:52 pm 22:52 Mostly Cloudy 73 22.8 70 21.1 90 90 NNW 7 11 29.80 1009 10 16 0.00 0.00
11:11 pm 23:11 Mostly Cloudy 73 22.8 71 21.7 94 94 NNE 3 6 29.81 1009 10 16 0.00 0.00
11:40 pm 23:40 Mostly Cloudy 73 22.8 70 21.1 90 90 N 3 6 29.80 1009 10 16 0.00 0.00
11:52 pm 23:52 Mostly Cloudy 73 22.8 70 21.1 90 90 N 3 6 29.80 1009 10 16 0.00 0.00

Powered by AerisWeather